Stations météo

réclame
Mon MeteoGroup
Gilze-Rijen, Pays-Bas (6350): Température de l'air & dewpoint: 15.01.2018 14:00:00 - 21.01.2018 14:00:00 (CET)Gilze-Rijen, Pays-Bas (6350): Température de l'air 5cm: 15.01.2018 14:00:00 - 21.01.2018 14:00:00 (CET)Gilze-Rijen, Pays-Bas (6350): Vitesse du vent & gusts: 15.01.2018 14:00:00 - 21.01.2018 14:00:00 (CET)Gilze-Rijen, Pays-Bas (6350): Direction du vent: 15.01.2018 14:00:00 - 21.01.2018 14:00:00 (CET)Gilze-Rijen, Pays-Bas (6350): reduced air pressure: 15.01.2018 14:00:00 - 21.01.2018 14:00:00 (CET)Gilze-Rijen, Pays-Bas (6350): visibility: 15.01.2018 14:00:00 - 21.01.2018 14:00:00 (CET)Gilze-Rijen, Pays-Bas (6350): Quantités de précipitations: 15.01.2018 14:00:00 - 21.01.2018 14:00:00 (CET)
Date & Time tt [°C] td [°C] tt 5cm [°C] ff [km/h] ff [knt] fx [km/h] fx [knt] dd ppp [hPa] vv [km] rr [mm]
21.01.2018 14:00:00 - - - - - - - - - - -
21.01.2018 13:00:00 5,4 2,9 5,2 7 4 18 10 SSW 1016,4 31 0,0
21.01.2018 12:00:00 4,4 1,8 5,0 8 4 14 8 SW 1016,3 10 0,0
21.01.2018 11:00:00 2,5 0,9 1,9 8 4 14 8 SW 1016,1 10 0,0
21.01.2018 10:00:00 1,2 0,0 0,7 7 4 14 8 WSW 1015,3 22 0,0
21.01.2018 09:00:00 0,4 -0,5 -1,0 11 6 14 8 WSW 1014,8 11 0,0
21.01.2018 08:00:00 0,0 -0,9 -1,2 7 4 14 8 WSW 1014,0 11 0,0
21.01.2018 07:00:00 0,3 -0,8 -0,9 11 6 14 8 WSW 1013,0 15 0,0
21.01.2018 06:00:00 0,8 0,0 0,0 7 4 14 8 W 1012,1 12 0,0
21.01.2018 05:00:00 1,0 0,0 -0,4 9 5 14 8 WSW 1011,2 10 0,0
21.01.2018 04:00:00 1,7 0,8 0,7 11 6 22 12 W 1010,0 10 0,0
21.01.2018 03:00:00 1,7 0,9 0,7 7 4 14 8 W 1009,2 12 0,0
21.01.2018 02:00:00 1,6 0,7 0,9 14 8 29 16 WNW 1007,8 37 0,1
21.01.2018 01:00:00 2,5 2,1 2,1 11 6 18 10 W 1006,6 8 0,1
21.01.2018 00:00:00 2,6 2,3 2,2 11 6 14 8 W 1005,4 3,3 0,2
20.01.2018 23:00:00 2,2 1,8 1,7 14 8 18 10 WNW 1004,3 3,4 0,0
20.01.2018 22:00:00 0,7 0,4 -0,5 7 4 7 4 NW 1003,3 2,3 0,0
20.01.2018 21:00:00 2,1 1,8 1,0 8 4 7 4 NW 1002,2 2,7 0,0
20.01.2018 20:00:00 2,4 2,1 2,3 4 2 7 4 W 1001,2 2,7 0,1
20.01.2018 19:00:00 2,3 1,6 2,0 4 2 7 4 N 1000,6 6 0,1
20.01.2018 18:00:00 2,6 1,8 2,4 4 2 7 4 NE 999,8 4,3 0,0
20.01.2018 17:00:00 2,7 1,8 2,6 4 2 14 8 ESE 999,9 12 0,0
20.01.2018 16:00:00 2,9 2,2 3,0 7 4 14 8 SE 999,3 14 0,2
20.01.2018 15:00:00 3,1 2,1 3,2 11 6 18 10 SSE 1000,0 13 0,3
20.01.2018 14:00:00 3,4 2,6 3,6 11 6 18 10 S 1000,8 13 0,2
20.01.2018 13:00:00 3,4 2,6 3,5 15 8 29 16 S 1002,0 10 0,2
20.01.2018 12:00:00 3,3 2,2 2,9 15 8 22 12 S 1003,2 10 0,0
20.01.2018 11:00:00 2,5 1,7 2,2 11 6 18 10 S 1003,9 10 0,0
20.01.2018 10:00:00 1,9 1,3 1,4 15 8 22 12 S 1004,7 9 0,0
20.01.2018 09:00:00 1,6 0,9 0,8 18 10 29 16 S 1005,5 10 0,0
20.01.2018 08:00:00 1,0 0,2 0,2 14 8 22 12 SSW 1005,9 16 0,0
20.01.2018 07:00:00 0,8 -0,1 0,0 14 8 25 14 S 1006,3 17 0,0
20.01.2018 06:00:00 0,9 -0,1 0,0 15 8 22 12 SSW 1006,8 10 0,0
20.01.2018 05:00:00 0,7 -0,2 -0,1 14 8 22 12 S 1007,3 13 0,0
20.01.2018 04:00:00 0,8 -0,2 0,1 11 6 18 10 SSW 1008,0 10 0,0
20.01.2018 03:00:00 1,4 0,3 0,8 11 6 18 10 SSW 1008,4 16 0,3
20.01.2018 02:00:00 1,1 0,1 0,3 14 8 18 10 S 1008,5 14 0,0
20.01.2018 01:00:00 1,5 0,9 0,8 7 4 18 10 SSW 1009,0 13 0,0
20.01.2018 00:00:00 1,6 0,7 1,2 9 5 18 10 SSW 1009,0 10 0,9
19.01.2018 23:00:00 2,4 1,0 1,8 7 4 22 12 W 1009,5 10 0,3
19.01.2018 22:00:00 2,9 0,2 1,9 11 6 18 10 WSW 1009,1 14 0,0
19.01.2018 21:00:00 2,7 0,0 1,1 11 6 18 10 SSW 1008,7 27 0,0
19.01.2018 20:00:00 2,8 0,1 1,4 9 5 18 10 SW 1008,7 10 0,0
19.01.2018 19:00:00 2,8 0,5 1,5 7 4 14 8 SW 1008,8 38 0,0
19.01.2018 18:00:00 3,0 0,4 1,4 8 4 18 10 SW 1008,6 10 0,0
19.01.2018 17:00:00 4,1 1,0 2,9 11 6 25 14 WSW 1008,5 34 0,0
19.01.2018 16:00:00 5,0 1,2 4,5 14 8 40 21 WSW 1008,5 35 0,0
19.01.2018 15:00:00 5,5 2,2 5,0 14 8 32 18 SW 1008,4 21 0,1
19.01.2018 14:00:00 4,4 1,8 4,3 14 8 32 18 SW 1008,6 25 0,0
19.01.2018 13:00:00 4,7 2,4 4,9 18 10 29 16 SSW 1008,8 21 0,0
19.01.2018 12:00:00 5,1 2,3 5,8 18 10 29 16 SSW 1008,9 19 0,0
19.01.2018 11:00:00 4,1 2,3 4,4 13 7 22 12 SW 1008,8 10 0,0
19.01.2018 10:00:00 3,3 1,7 2,8 11 6 18 10 SW 1008,3 10 0,0
19.01.2018 09:00:00 2,9 1,5 1,9 11 6 22 12 SW 1007,7 10 0,0
19.01.2018 08:00:00 3,6 1,5 2,8 13 7 22 12 W 1007,1 10 0,0
19.01.2018 07:00:00 3,8 2,2 3,5 16 9 32 18 W 1006,5 9 0,3
19.01.2018 06:00:00 3,8 2,2 3,2 13 7 22 12 W 1006,0 10 0,1
19.01.2018 05:00:00 3,9 2,4 3,2 11 6 25 14 WSW 1005,2 5 0,2
19.01.2018 04:00:00 3,1 2,1 2,3 11 6 25 14 WSW 1004,6 10 0,0
19.01.2018 03:00:00 3,3 2,2 2,9 13 7 22 12 WSW 1004,2 10 0,3
19.01.2018 02:00:00 3,7 2,6 3,2 13 7 25 14 WSW 1003,7 5 0,8
19.01.2018 01:00:00 2,7 2,1 2,3 9 5 32 18 SW 1003,3 10 1,3
19.01.2018 00:00:00 3,1 2,0 2,8 16 9 36 19 WSW 1003,4 4,8 0,8
18.01.2018 23:00:00 3,1 2,0 1,9 9 5 18 10 SW 1002,3 10 0,0
18.01.2018 22:00:00 4,0 2,3 3,1 11 6 18 10 SW 1002,0 10 0,0
18.01.2018 21:00:00 3,4 1,3 1,9 5 3 14 8 SSW 1001,8 10 0,0
18.01.2018 20:00:00 2,0 0,7 -0,2 5 3 7 4 S 1001,8 10 0,0
18.01.2018 19:00:00 3,4 1,5 1,1 5 3 14 8 WSW 1001,9 10 0,0
18.01.2018 18:00:00 5,1 1,8 4,2 13 7 36 19 W 1002,1 10 0,0
18.01.2018 17:00:00 5,4 1,9 4,7 18 10 32 18 W 1001,8 10 0,0
18.01.2018 16:00:00 5,8 2,4 5,3 13 7 47 25 W 1001,4 10 0,0
18.01.2018 15:00:00 5,9 1,7 5,4 22 12 58 31 W 1000,8 10 0,0
18.01.2018 14:00:00 6,0 1,2 5,7 37 20 61 33 W 1000,2 10 0,0
18.01.2018 13:00:00 5,9 2,5 5,7 39 21 68 37 W 999,2 10 0,2
18.01.2018 12:00:00 5,7 2,8 5,4 42 23 94 51 W 997,4 10 0,2
18.01.2018 11:00:00 5,9 1,5 5,6 63 34 104 56 W 994,5 10 0,0
18.01.2018 10:00:00 8,2 0,9 7,7 54 29 101 54 W 990,9 10 0,0
18.01.2018 09:00:00 10,5 4,3 9,6 48 26 94 51 WSW 988,5 10 0,0
18.01.2018 08:00:00 10,2 6,7 9,0 31 17 61 33 WSW 988,1 10 0,0
18.01.2018 07:00:00 8,1 6,5 7,6 35 19 58 31 SW 989,0 10 0,0
18.01.2018 06:00:00 6,8 5,6 5,9 34 18 68 37 SSW 990,5 6 0,5
18.01.2018 05:00:00 4,4 3,5 3,9 39 21 61 33 S 993,7 3,4 1,5
18.01.2018 04:00:00 3,9 2,7 3,6 35 19 47 25 S 997,3 5 2,2
18.01.2018 03:00:00 4,2 2,6 3,9 26 14 43 23 SSW 1000,7 10 0,7
18.01.2018 02:00:00 4,4 1,1 4,0 16 9 25 14 SSW 1002,8 10 0,0
18.01.2018 01:00:00 4,7 0,8 4,0 16 9 29 16 SSW 1004,8 10 0,0
18.01.2018 00:00:00 5,0 0,6 4,2 16 9 32 18 SW 1006,0 10 0,0
17.01.2018 23:00:00 5,0 0,4 4,0 15 8 29 16 WSW 1006,6 10 0,0
17.01.2018 22:00:00 4,7 0,6 3,7 15 8 29 16 WSW 1007,0 10 0,0
17.01.2018 21:00:00 5,0 0,8 3,9 13 7 25 14 SW 1006,9 10 0,2
17.01.2018 20:00:00 5,4 0,9 4,8 18 10 36 19 WSW 1007,1 10 0,0
17.01.2018 19:00:00 5,7 0,4 4,8 18 10 32 18 WSW 1006,9 10 0,0
17.01.2018 18:00:00 5,8 0,3 4,9 22 12 40 21 W 1007,0 10 0,0
17.01.2018 17:00:00 5,7 0,0 4,9 24 13 47 25 W 1006,4 10 0,0
17.01.2018 16:00:00 5,8 0,2 5,2 29 16 58 31 W 1005,4 10 0,0
17.01.2018 15:00:00 6,0 0,2 5,7 34 18 58 31 W 1004,1 10 0,0
17.01.2018 14:00:00 5,8 0,5 4,7 37 20 61 33 W 1003,0 10 0,0
17.01.2018 13:00:00 5,6 0,5 5,2 26 14 47 25 W 1002,0 10 0,0
17.01.2018 12:00:00 5,0 0,7 4,4 26 14 47 25 W 1001,6 10 0,1
17.01.2018 11:00:00 4,4 0,3 3,9 29 16 50 27 W 1000,8 10 0,1
17.01.2018 10:00:00 3,6 0,1 2,4 18 10 47 25 WSW 999,8 10 0,1
17.01.2018 09:00:00 2,4 -0,7 2,2 22 12 54 29 W 998,8 10 0,0
17.01.2018 08:00:00 3,2 -1,4 2,4 26 14 50 27 W 997,5 10 0,0
17.01.2018 07:00:00 3,4 -1,2 2,5 24 13 50 27 W 996,3 10 0,0
17.01.2018 06:00:00 3,5 -1,0 2,6 24 13 40 21 W 995,2 10 0,0
17.01.2018 05:00:00 3,6 -0,5 2,9 16 9 40 21 W 994,3 10 0,0
17.01.2018 04:00:00 3,4 0,3 2,5 15 8 29 16 WSW 993,6 10 0,0
17.01.2018 03:00:00 3,2 0,6 2,7 18 10 43 23 WSW 992,9 10 0,2
17.01.2018 02:00:00 3,8 1,6 3,1 16 9 32 18 WSW 992,3 10 0,0
17.01.2018 01:00:00 3,7 1,5 3,0 18 10 32 18 WSW 992,3 10 0,8
17.01.2018 00:00:00 4,3 0,8 3,1 16 9 25 14 SSW 992,1 10 0,0
16.01.2018 23:00:00 4,4 0,5 3,5 16 9 29 16 SSW 992,7 10 0,0
16.01.2018 22:00:00 4,5 0,4 3,4 16 9 29 16 SW 993,2 10 0,0
16.01.2018 21:00:00 4,3 0,6 3,1 16 9 25 14 SSW 993,4 10 0,0
16.01.2018 20:00:00 3,9 0,2 2,7 11 6 18 10 SW 993,8 10 0,0
16.01.2018 19:00:00 3,7 0,2 2,5 11 6 22 12 WSW 994,2 10 0,0
16.01.2018 18:00:00 4,4 0,4 3,2 15 8 29 16 WSW 994,4 10 0,0
16.01.2018 17:00:00 4,1 0,5 3,1 13 7 40 21 W 994,6 10 0,2
16.01.2018 16:00:00 4,7 0,6 4,1 21 11 43 23 WSW 994,5 10 0,0
16.01.2018 15:00:00 6,2 0,8 5,3 21 11 50 27 W 994,0 10 0,0
16.01.2018 14:00:00 6,2 0,7 5,7 32 18 54 29 W 994,0 26 0,0
16.01.2018 13:00:00 6,3 1,5 5,9 22 12 58 31 W 994,0 10 0,2
16.01.2018 12:00:00 6,2 2,7 6,0 31 17 47 25 W 993,9 10 0,1
16.01.2018 11:00:00 4,3 1,7 3,7 21 11 50 27 WNW 993,4 10 0,2
16.01.2018 10:00:00 5,1 2,5 4,4 15 8 50 27 W 992,4 10 0,1
16.01.2018 09:00:00 6,4 4,0 6,0 24 13 47 25 W 991,2 10 0,2
16.01.2018 08:00:00 6,5 4,1 5,8 21 11 40 21 WSW 990,7 10 0,3
16.01.2018 07:00:00 6,1 4,3 5,6 21 11 36 19 WSW 990,8 10 0,5
16.01.2018 06:00:00 6,2 4,0 5,4 18 10 32 18 WSW 991,1 10 0,1
16.01.2018 05:00:00 6,5 4,2 6,0 18 10 40 21 WSW 991,8 10 0,0
16.01.2018 04:00:00 6,7 4,0 6,2 21 11 32 18 SW 992,0 10 0,0
16.01.2018 03:00:00 6,4 4,3 5,9 16 9 32 18 SW 992,6 10 0,0
16.01.2018 02:00:00 6,0 4,3 5,3 11 6 50 27 SW 993,1 10 0,3
16.01.2018 01:00:00 6,4 3,9 5,6 18 10 36 19 WSW 993,6 10 0,0
16.01.2018 00:00:00 5,8 4,0 4,8 15 8 29 16 WSW 993,3 10 0,0
15.01.2018 23:00:00 6,6 4,8 5,9 15 8 29 16 WSW 992,4 10 0,0
15.01.2018 22:00:00 7,5 6,2 7,1 22 12 36 19 W 992,1 10 0,5
15.01.2018 21:00:00 8,0 6,8 7,6 21 11 47 25 W 991,6 10 1,7
15.01.2018 20:00:00 7,1 6,2 6,6 26 14 43 23 SSW 991,2 10 0,6
15.01.2018 19:00:00 6,1 5,0 5,6 37 20 58 31 SSW 991,6 10 0,8
15.01.2018 18:00:00 5,8 4,3 5,4 39 21 61 33 S 992,7 6 0,7
15.01.2018 17:00:00 6,0 4,2 5,5 37 20 65 35 S 994,5 10 2,3
15.01.2018 16:00:00 6,3 4,7 6,0 39 21 58 31 S 996,3 10 0,4
15.01.2018 15:00:00 6,1 4,8 5,8 41 22 58 31 S 998,2 6 0,6
15.01.2018 14:00:00 6,0 4,9 5,9 34 18 50 27 S 1000,3 4,0 0,8

tt = Température de l'air
td = dewpoint
tt 5cm = Température de l'air 5cm
ff = Vitesse du vent
fx = gusts
dd = Direction du vent
ppp = reduced air pressure
vv = visibility
rr = Quantités de précipitations

stations d'obs. à proximité